Showing default

CONNECTA IOT-1, 60472

Orbit data source: Space-Track

CONNECTA IOT-1, 60472 is a payload satellite owned by Plan-S (TR) in SSO that was launched on Fri, 16 Aug 2024 UTC via an FALCON 9 launch vehicle from the Air Force Western Test Range (AFWTR). Payload-class satellites include a variety of spacecraft equipped with specific instruments for various scientific and technological missions. These include communications satellites like Starlink; space stations such as the ISS; scientific satellites like the Hubble; Earth observation satellites from companies like Planet Labs, Umbra, and HawkEye 360; GPS; miniature CubeSats for education and research; and military/defense satellites.

Loading next visibility...
Identifier
60472, 2024-149E
Orbit
SSO
Country
Flag of UnknownUnknown / TURK
Related business
Manufacturer
Plan-S
Mission
Operational Commercial Communications
Bus & Motor
CUBESAT 6U, Unknown motor
Mass
10 kg wet, 10 kg dry
Launch date (UTC)
2024-08-16 (1 year ago)
Launch vehicle
FALCON 9
Launch site
Air Force Western Test Range (AFWTR)
Object type
Payload
Rocket body
Debris
Shape & HBR
Box, 2.2 m
Radar Cross Section
0.080 m², Medium (>0.1 m² and < 1m²)

Expand to show TLE details & history
Last TLE update: 17 hours ago

TLE from 17 hours ago
0 CONNECTA IOT-1
1 60472U 24149E   25286.95562690  .00007961  00000-0  34579-3 0  9998
2 60472  97.4010   2.3053 0003325  75.3911 284.7694 15.22566329 64320
Epoch: 2025-10-13T22:56Z
TLE epoch observation values (Epoch: 2025-10-13T22:56:06.164Z)
Latitude
-0.00001°
Longitude
-4.47136°
Altitude
500.615 km
Speed
7.614 km/s
True Right ascension
00h 09m 13s
True Declination
0° 00' 00"
Sunlit
Object was in full shadow at epoch
Visualization orbit readout
Latitude
Unknown
Longitude
Unknown
Altitude
Unknown
Speed
Unknown
Apparent Right ascension
Unknown
Apparent Declination
Unknown
Sunlit
N/A
Visualization observer readout
Local Sidereal Time
10:35:09
Azimuth
Unknown
Elevation
Unknown
Doppler factor
Unknown
Orbital elements
Apogee altitude
497.351 km
Perigee altitude
492.78 km
Semi-major axis
6,873.202 km
Eccentricity
0.00033
Inclination
97.401°
RAAN
2.3053°
Arg. of periapsis
75.3911°
True anomaly
284.73255°
Mean anomaly
284.7694°
Eccentric anomaly
284.75098°
Mean motion
3.80894 °/min
Orbital period
94.51 mins
BSTAR
0.00034579
Loading maneuver chart data...
Computing Atmospheric mass density...
Loading historical data...
Loading historical data...
Loading historical data...
Loading historical data...
Loading historical data...
Loading historical data...
Loading historical data...

Documentation

Showing up to 5 results
|